TimeCDT,TemperatureF,Dew PointF,Humidity,Sea Level PressureIn,VisibilityMPH,Wind Direction,Wind SpeedMPH,Gust SpeedMPH,PrecipitationIn,Events,Conditions,WindDirDegrees,DateUTC
12:50 AM,71.6,66.2,83,30.01,10.0,Calm,Calm,-,N/A,,Clear,0,2012-10-06 05:50:00
1:50 AM,69.8,66.2,88,30.01,10.0,Calm,Calm,-,N/A,,Clear,0,2012-10-06 06:50:00
2:50 AM,69.8,66.2,88,30.01,10.0,Calm,Calm,-,N/A,,Clear,0,2012-10-06 07:50:00
3:50 AM,68.0,66.2,94,30.00,10.0,Calm,Calm,-,N/A,,Partly Cloudy,0,2012-10-06 08:50:00
4:50 AM,68.0,66.2,94,30.00,10.0,Calm,Calm,-,N/A,,Partly Cloudy,0,2012-10-06 09:50:00
5:50 AM,69.8,66.2,88,30.01,10.0,Calm,Calm,-,N/A,,Partly Cloudy,0,2012-10-06 10:50:00
6:50 AM,69.8,68.0,94,30.02,10.0,Calm,Calm,-,N/A,,Scattered Clouds,0,2012-10-06 11:50:00
7:50 AM,68.0,64.4,88,30.02,10.0,Calm,Calm,-,N/A,,Mostly Cloudy,0,2012-10-06 12:50:00
8:50 AM,71.6,68.0,88,30.03,10.0,North,3.5,-,N/A,,Mostly Cloudy,10,2012-10-06 13:50:00
9:50 AM,71.6,68.0,88,30.05,10.0,North,6.9,-,N/A,,Mostly Cloudy,360,2012-10-06 14:50:00
10:50 AM,73.4,66.2,78,30.06,10.0,NNE,6.9,-,N/A,,Mostly Cloudy,20,2012-10-06 15:50:00
11:50 AM,77.0,68.0,74,30.04,10.0,Calm,Calm,-,N/A,,Mostly Cloudy,0,2012-10-06 16:50:00
12:50 PM,80.6,68.0,65,30.02,10.0,ESE,8.1,-,N/A,,Mostly Cloudy,110,2012-10-06 17:50:00
1:50 PM,82.4,66.2,58,29.99,10.0,NE,4.6,-,N/A,,Mostly Cloudy,40,2012-10-06 18:50:00
2:50 PM,86.0,66.2,51,29.98,10.0,East,3.5,-,N/A,,Mostly Cloudy,80,2012-10-06 19:50:00
3:50 PM,89.6,66.2,46,29.97,10.0,ESE,1.2,-,N/A,,Mostly Cloudy,110,2012-10-06 20:50:00
4:50 PM,89.6,66.2,46,29.96,10.0,ESE,4.6,-,N/A,,Scattered Clouds,120,2012-10-06 21:50:00
5:50 PM,89.6,64.4,43,29.96,10.0,SE,4.6,-,N/A,,Scattered Clouds,130,2012-10-06 22:50:00
6:50 PM,86.0,64.4,48,29.97,10.0,Calm,Calm,-,N/A,,Scattered Clouds,0,2012-10-06 23:50:00
7:50 PM,77.0,66.2,69,30.02,10.0,NNE,17.3,21.9,N/A,,Scattered Clouds,20,2012-10-07 00:50:00
8:50 PM,71.6,66.2,83,30.02,10.0,North,15.0,-,N/A,,Overcast,10,2012-10-07 01:50:00
9:50 PM,69.8,64.4,83,30.06,10.0,North,10.4,-,N/A,,Overcast,10,2012-10-07 02:50:00
10:50 PM,68.0,64.4,88,30.07,10.0,North,12.7,-,N/A,,Overcast,10,2012-10-07 03:50:00
11:50 PM,66.2,64.4,94,30.07,10.0,North,11.5,-,N/A,,Overcast,10,2012-10-07 04:50:00